Easton, MD

12:54 AM EST on November 19, 2019 (GMT -0500)
Easton / Newnam

Weather History for KESN - September, 2019

Change the Weather History Date:

Thursday, September 19, 2019

  Actual Average Record
Temperature  
Mean Temperature 62 °F -  
Max Temperature 73 °F 80 °F 92 °F (1965)
Min Temperature 51 °F 59 °F 41 °F (1959)
Degree Days  
Heating Degree Days 3    
Growing Degree Days 12 (Base 50)    
Moisture  
Dew Point 50 °F    
Average Humidity 75    
Maximum Humidity 94    
Minimum Humidity 36    
Precipitation  
Precipitation 0.00 in - - ()
Sea Level Pressure  
Sea Level Pressure 30.33 in    
Wind  
Wind Speed 3 mph (NNE)    
Max Wind Speed 8 mph    
Max Gust Speed -    
Visibility 10 miles    
Events      
Averages and records for this station are not official NWS values.
T = Trace of Precipitation, MM = Missing Value Source: NWS Daily Summary

Daily Weather History Graph

Daily Weather History Graph

Search for Another Location

Airport or City:

Astronomy

Sep. 19, 2019 Rise Set
Actual Time 6:49 AM EDT 7:06 PM EDT
Civil Twilight 6:22 AM EDT 7:33 PM EDT
Nautical Twilight 5:51 AM EDT 8:04 PM EDT
Astronomical Twilight 5:19 AM EDT 8:35 PM EDT
Moon 10:17 PM EDT 11:47 AM EDT
Length of Visible Light 13h 10m
Length of Day
12h 17m
Waning Gibbous, 74% of the Moon is Illuminated
Sep 19
Waning Gibbous
Sep 21
Last Quarter
Sep 28
New
Oct 5
First Quarter
Oct 13
Full

Hourly Weather History & Observations

Time (EDT) Temp. Dew Point Humidity Pressure Visibility Wind Dir Wind Speed Gust Speed Precip Events Conditions
12:00 AM 59.4 °F 53.8 °F 82% 30.30 in 10.0 mi Calm Calm - N/A   Clear
12:20 AM 58.8 °F 53.6 °F 83% 30.31 in 10.0 mi ENE 3.5 mph - N/A   Clear
12:40 AM 57.9 °F 53.1 °F 84% 30.30 in 10.0 mi NE 3.5 mph - N/A   Clear
1:00 AM 57.2 °F 53.1 °F 86% 30.31 in 10.0 mi NNE 3.5 mph - N/A   Clear
1:20 AM 56.3 °F 52.5 °F 87% 30.31 in 10.0 mi NNE 4.6 mph - N/A   Clear
1:40 AM 56.1 °F 53.1 °F 89% 30.31 in 10.0 mi NNE 3.5 mph - N/A   Clear
2:00 AM 55.9 °F 53.4 °F 91% 30.31 in 10.0 mi North 3.5 mph - N/A   Clear
2:20 AM 55.6 °F 53.2 °F 92% 30.31 in 10.0 mi North 3.5 mph - N/A   Clear
2:40 AM 55.8 °F 52.7 °F 89% 30.31 in 10.0 mi North 3.5 mph - N/A   Clear
3:00 AM 53.6 °F 50.7 °F 90% 30.31 in 10.0 mi NNE 4.6 mph - N/A   Clear
3:20 AM 54.0 °F 51.4 °F 91% 30.31 in 10.0 mi North 3.5 mph - N/A   Clear
3:40 AM 54.3 °F 51.4 °F 90% 30.31 in 10.0 mi North 3.5 mph - N/A   Clear
4:00 AM 54.5 °F 51.1 °F 88% 30.32 in 10.0 mi North 4.6 mph - N/A   Clear
4:20 AM 52.2 °F 49.3 °F 90% 30.32 in 10.0 mi NNE 4.6 mph - N/A   Clear
4:40 AM 52.9 °F 50.0 °F 90% 30.33 in 10.0 mi North 4.6 mph - N/A   Clear
5:00 AM 53.2 °F 50.2 °F 89% 30.33 in 10.0 mi North 3.5 mph - N/A   Clear
5:20 AM 51.6 °F 48.9 °F 90% 30.33 in 10.0 mi NNE 4.6 mph - N/A   Clear
5:59 AM 51.8 °F 48.2 °F 88% 30.34 in 10.0 mi North 4.6 mph - N/A   Clear
6:48 AM 51.8 °F 50.0 °F 94% 30.35 in 10.0 mi North 4.6 mph - N/A   Clear
7:50 AM 55.4 °F 51.8 °F 88% 30.36 in 10.0 mi NNE 4.6 mph - N/A   Clear
8:54 AM 60.8 °F 51.8 °F 72% 30.37 in 10.0 mi NNE 8.1 mph - N/A   Clear
9:52 AM 64.4 °F 48.2 °F 56% 30.38 in 10.0 mi NNE 8.1 mph - N/A   Clear
10:45 AM 66.2 °F 46.4 °F 49% 30.39 in 10.0 mi NNE 4.6 mph - N/A   Clear
12:46 PM 71.6 °F 46.4 °F 41% 30.37 in 10.0 mi NNE 5.8 mph - N/A   Partly Cloudy
1:50 PM 73.4 °F 44.6 °F 36% 30.35 in 10.0 mi ESE 4.6 mph - N/A   Partly Cloudy
2:50 PM 73.4 °F 44.6 °F 36% 30.34 in 10.0 mi WNW 3.5 mph - N/A   Partly Cloudy
3:50 PM 73.4 °F 46.4 °F 38% 30.32 in 10.0 mi NNE 4.6 mph - N/A   Clear
4:57 PM 73.4 °F 48.2 °F 41% 30.32 in 10.0 mi WSW 4.6 mph - N/A   Clear
5:58 PM 69.8 °F 50.0 °F 49% 30.32 in 10.0 mi WNW 6.9 mph - N/A   Clear
7:50 PM 64.4 °F 51.8 °F 64% 30.35 in 10.0 mi East 3.5 mph - N/A   Clear
8:50 PM 62.6 °F 51.8 °F 68% 30.35 in 10.0 mi SE 3.5 mph - N/A   Clear
10:20 PM 58.6 °F 51.1 °F 76% 30.34 in 10.0 mi Calm Calm - N/A   Clear
10:40 PM 58.3 °F 51.1 °F 77% 30.34 in 10.0 mi Calm Calm - N/A   Clear
11:00 PM 57.4 °F 51.3 °F 80% 30.34 in 10.0 mi Calm Calm - N/A   Clear
11:20 PM 57.4 °F 51.3 °F 80% 30.34 in 10.0 mi Calm Calm - N/A   Clear
11:40 PM 56.3 °F 50.7 °F 82% 30.34 in 10.0 mi Calm Calm - N/A   Clear